Zurück zum Katalog

STARLINK-33592

AktivKommunikationVLEO
NORAD 62765·PAYLOAD·🇺🇸 United States

Gestartet Jan 21, 2025 von Vandenberg Space Force Base

Loading…

Nächste Überflüge (nächste 24 Stunden)

TLE

AktuellSource: CelesTrak SupGP

Epoche: Sep 15, 2026, 03:11 UTC

1 62765C 25015H   26258.13312500  .00017356  00000+0  51278-3 0  2582
2 62765  53.1573 158.4580 0001282  86.0450 249.4858 15.34381949    17

Verfolge STARLINK-33592 in Echtzeit mit AllMySat

Download on the App Store